| time (UTC) | temp F | wind direction | speed MPH | gust MPH | rain 1hr in | rain 24hr in | rain mn in | humidity % | barometer mb |
| 20260906140042 | 68 | 133 | 1.0 | 3.0 | 0.00 | 0.00 | 0.00 | 93 | 1024.4 |
| 20260906135539 | 68 | 169 | 2.0 | 3.0 | 0.00 | 0.00 | 0.00 | 93 | 1024.4 |
| 20260906135036 | 68 | 337 | 1.0 | 2.0 | 0.00 | 0.00 | 0.00 | 93 | 1024.3 |
| 20260906134531 | 68 | 90 | 3.0 | 3.0 | 0.00 | 0.00 | 0.00 | 92 | 1024.4 |
| 20260906134026 | 68 | 10 | 3.0 | 3.0 | 0.00 | 0.00 | 0.00 | 92 | 1024.3 |
| 20260906133522 | 68 | 88 | 1.0 | 2.0 | 0.00 | 0.00 | 0.00 | 93 | 1024.2 |
| 20260906133017 | 67 | 154 | 0.0 | 1.0 | 0.00 | 0.00 | 0.00 | 94 | 1024.1 |
| 20260906132513 | 67 | 111 | 1.0 | 1.0 | 0.00 | 0.00 | 0.00 | 95 | 1024.2 |
| 20260906132008 | 67 | 162 | 1.0 | 2.0 | 0.00 | 0.00 | 0.00 | 96 | 1024.1 |
| 20260906131503 | 66 | 162 | 1.0 | 3.0 | 0.00 | 0.00 | 0.00 | 97 | 1024.2 |
| 20260906130958 | 66 | 110 | 2.0 | 5.0 | 0.00 | 0.00 | 0.00 | 98 | 1024.0 |
| 20260906130457 | 66 | 56 | 2.0 | 2.0 | 0.00 | 0.00 | 0.00 | 99 | 1024.1 |
| 20260906125952 | 65 | 108 | 1.0 | 1.0 | 0.00 | 0.00 | 0.00 | 99 | 1024.2 |
| 20260906125450 | 64 | 111 | 1.0 | 2.0 | 0.00 | 0.00 | 0.00 | 99 | 1024.3 |
| 20260906124949 | 64 | 7 | 3.0 | 3.0 | 0.00 | 0.00 | 0.00 | 99 | 1024.1 |
| 20260906124445 | 63 | 51 | 3.0 | 3.0 | 0.00 | 0.00 | 0.00 | 99 | 1024.1 |
| 20260906123944 | 63 | 348 | 3.0 | 5.0 | 0.00 | 0.00 | 0.00 | 99 | 1024.1 |
| 20260906123439 | 63 | 9 | 2.0 | 3.0 | 0.00 | 0.00 | 0.00 | 99 | 1024.0 |
| 20260906122938 | 63 | 177 | 0.0 | 1.0 | 0.00 | 0.00 | 0.00 | 99 | 1024.1 |
| 20260906122433 | 63 | 347 | 0.0 | 1.0 | 0.00 | 0.00 | 0.00 | 99 | 1024.0 |
| 20260906121930 | 63 | 171 | 0.0 | 5.0 | 0.00 | 0.00 | 0.00 | 99 | 1023.7 |
| 20260906121426 | 63 | 139 | 1.0 | 3.0 | 0.00 | 0.00 | 0.00 | 99 | 1023.7 |
| 20260906120923 | 63 | 155 | 1.0 | 1.0 | 0.00 | 0.00 | 0.00 | 99 | 1023.9 |
| 20260906120418 | 63 | 318 | 2.0 | 2.0 | 0.00 | 0.00 | 0.00 | 99 | 1024.1 |
| 20260906115914 | 62 | 156 | 1.0 | 5.0 | 0.00 | 0.00 | 0.00 | 99 | 1023.7 |
| 20260906115409 | 62 | 71 | 1.0 | 2.0 | 0.00 | 0.00 | 0.00 | 99 | 1023.5 |
| 20260906114908 | 62 | 115 | 1.0 | 2.0 | 0.00 | 0.00 | 0.00 | 99 | 1023.3 |
| 20260906114403 | 62 | 9 | 2.0 | 5.0 | 0.00 | 0.00 | 0.00 | 99 | 1023.3 |
| 20260906113859 | 62 | 10 | 4.0 | 5.0 | 0.00 | 0.00 | 0.00 | 99 | 1023.4 |
| 20260906113358 | 62 | 345 | 2.0 | 3.0 | 0.00 | 0.00 | 0.00 | 99 | 1023.3 |
| 20260906112854 | 62 | 345 | 1.0 | 3.0 | 0.00 | 0.00 | 0.00 | 99 | 1023.0 |
| 20260906112350 | 62 | 346 | 2.0 | 2.0 | 0.00 | 0.00 | 0.00 | 99 | 1022.8 |
| 20260906111849 | 62 | 315 | 1.0 | 3.0 | 0.00 | 0.00 | 0.00 | 99 | 1022.9 |
| 20260906111349 | 62 | 263 | 2.0 | 2.0 | 0.00 | 0.00 | 0.00 | 99 | 1022.8 |
| 20260906110844 | 62 | 5 | 2.0 | 3.0 | 0.00 | 0.00 | 0.00 | 99 | 1022.9 |
| 20260906110340 | 62 | 4 | 2.0 | 3.0 | 0.00 | 0.00 | 0.00 | 99 | 1022.8 |
| 20260906105838 | 62 | 314 | 2.0 | 2.0 | 0.00 | 0.00 | 0.00 | 99 | 1022.6 |
| 20260906105334 | 62 | 212 | 1.0 | 1.0 | 0.00 | 0.00 | 0.00 | 99 | 1022.7 |
| 20260906104831 | 62 | 249 | 1.0 | 2.0 | 0.00 | 0.00 | 0.00 | 99 | 1022.7 |
| 20260906104329 | 62 | 265 | 2.0 | 2.0 | 0.00 | 0.00 | 0.00 | 99 | 1022.6 |
| 20260906103828 | 62 | 8 | 2.0 | 2.0 | 0.00 | 0.00 | 0.00 | 99 | 1022.5 |
| 20260906103326 | 62 | 238 | 1.0 | 2.0 | 0.00 | 0.00 | 0.00 | 99 | 1022.7 |
| 20260906102822 | 62 | 216 | 1.0 | 2.0 | 0.00 | 0.00 | 0.00 | 99 | 1022.6 |
| 20260906102321 | 62 | 229 | 1.0 | 1.0 | 0.00 | 0.00 | 0.00 | 99 | 1022.6 |
| 20260906101817 | 62 | 211 | 1.0 | 1.0 | 0.00 | 0.00 | 0.00 | 99 | 1022.7 |
| 20260906101312 | 62 | 210 | 1.0 | 1.0 | 0.00 | 0.00 | 0.00 | 99 | 1022.6 |
| 20260906100808 | 63 | 201 | 1.0 | 1.0 | 0.00 | 0.00 | 0.00 | 99 | 1022.6 |
| 20260906100306 | 63 | 237 | 1.0 | 2.0 | 0.00 | 0.00 | 0.00 | 99 | 1022.6 |
| 20260906095802 | 63 | 356 | 3.0 | 3.0 | 0.00 | 0.00 | 0.00 | 99 | 1022.6 |
| 20260906095257 | 63 | 327 | 3.0 | 3.0 | 0.00 | 0.00 | 0.00 | 99 | 1022.6 |
| 20260906094756 | 63 | 13 | 2.0 | 3.0 | 0.00 | 0.00 | 0.00 | 99 | 1022.6 |
| 20260906094251 | 63 | 210 | 1.0 | 2.0 | 0.00 | 0.00 | 0.00 | 99 | 1022.6 |
| 20260906093748 | 63 | 76 | 1.0 | 3.0 | 0.00 | 0.00 | 0.00 | 99 | 1022.6 |
| 20260906093243 | 63 | 343 | 3.0 | 3.0 | 0.00 | 0.00 | 0.00 | 99 | 1022.5 |
| 20260906092738 | 63 | 30 | 2.0 | 2.0 | 0.00 | 0.00 | 0.00 | 99 | 1023.0 |
| 20260906092238 | 63 | 359 | 3.0 | 3.0 | 0.00 | 0.00 | 0.00 | 99 | 1022.7 |
| 20260906091734 | 63 | 340 | 2.0 | 3.0 | 0.00 | 0.00 | 0.00 | 99 | 1022.7 |
| 20260906091230 | 63 | 302 | 1.0 | 2.0 | 0.00 | 0.00 | 0.00 | 99 | 1022.7 |
| 20260906090726 | 63 | 234 | 0.0 | 1.0 | 0.00 | 0.00 | 0.00 | 99 | 1022.6 |
| 20260906090225 | 63 | 240 | 0.0 | 1.0 | 0.00 | 0.00 | 0.00 | 99 | 1022.4 |
| 20260906085724 | 63 | 28 | 1.0 | 2.0 | 0.00 | 0.00 | 0.00 | 99 | 1022.7 |
| 20260906085223 | 63 | 302 | 1.0 | 2.0 | 0.00 | 0.00 | 0.00 | 99 | 1022.8 |
| 20260906084718 | 63 | 145 | 1.0 | 2.0 | 0.00 | 0.00 | 0.00 | 99 | 1022.5 |
| 20260906084213 | 63 | 215 | 1.0 | 2.0 | 0.00 | 0.00 | 0.00 | 99 | 1022.5 |
| 20260906083708 | 63 | 29 | 1.0 | 2.0 | 0.00 | 0.00 | 0.00 | 99 | 1022.4 |
| 20260906083203 | 63 | 290 | 1.0 | 2.0 | 0.00 | 0.00 | 0.00 | 99 | 1022.4 |
| 20260906082658 | 63 | 219 | 1.0 | 2.0 | 0.00 | 0.00 | 0.00 | 99 | 1022.4 |
| 20260906082153 | 63 | 211 | 1.0 | 1.0 | 0.00 | 0.00 | 0.00 | 99 | 1022.2 |
| 20260906081649 | 63 | 145 | 1.0 | 1.0 | 0.00 | 0.00 | 0.00 | 99 | 1022.4 |
| 20260906081144 | 63 | 191 | 0.0 | 1.0 | 0.00 | 0.00 | 0.00 | 99 | 1022.4 |
| 20260906080640 | 62 | 191 | 0.0 | 0.0 | 0.00 | 0.00 | 0.00 | 99 | 1022.2 |
| 20260906080136 | 62 | 170 | 0.0 | 0.0 | 0.00 | 0.00 | 0.00 | 99 | 1022.3 |
| 20260906075636 | 63 | 197 | 0.0 | 0.0 | 0.00 | 0.00 | 0.00 | 99 | 1022.3 |
| 20260906075130 | 63 | 162 | 0.0 | 0.0 | 0.00 | 0.00 | 0.00 | 99 | 1022.3 |
| 20260906074626 | 63 | 162 | 0.0 | 0.0 | 0.00 | 0.00 | 0.00 | 99 | 1022.4 |
| 20260906074124 | 63 | 156 | 0.0 | 0.0 | 0.00 | 0.00 | 0.00 | 99 | 1022.5 |
| 20260906073619 | 63 | 163 | 0.0 | 0.0 | 0.00 | 0.00 | 0.00 | 99 | 1022.2 |
| 20260906073115 | 63 | 163 | 0.0 | 0.0 | 0.00 | 0.00 | 0.00 | 99 | 1022.7 |
| 20260906072611 | 63 | 165 | 0.0 | 1.0 | 0.00 | 0.00 | 0.00 | 99 | 1022.3 |
| 20260906072107 | 63 | 173 | 0.0 | 0.0 | 0.00 | 0.00 | 0.00 | 99 | 1022.6 |
| 20260906071603 | 63 | 188 | 0.0 | 1.0 | 0.00 | 0.00 | 0.00 | 99 | 1022.6 |
| 20260906071102 | 63 | 170 | 0.0 | 0.0 | 0.00 | 0.00 | 0.00 | 99 | 1022.6 |
| 20260906070559 | 63 | 169 | 0.0 | 0.0 | 0.00 | 0.00 | 0.00 | 99 | 1022.8 |
| 20260906070054 | 63 | 170 | 0.0 | 0.0 | 0.00 | 0.00 | 0.00 | 99 | 1022.6 |
| 20260906065554 | 63 | 191 | 0.0 | 0.0 | 0.00 | 0.00 | 0.00 | 99 | 1022.8 |
| 20260906065049 | 64 | 195 | 0.0 | 0.0 | 0.00 | 0.00 | 0.00 | 99 | 1022.6 |
| 20260906064545 | 64 | 225 | 1.0 | 2.0 | 0.00 | 0.00 | 0.00 | 99 | 1022.8 |
| 20260906064040 | 64 | 197 | 0.0 | 1.0 | 0.00 | 0.00 | 0.00 | 99 | 1022.9 |
| 20260906063536 | 64 | 258 | 1.0 | 1.0 | 0.00 | 0.00 | 0.00 | 99 | 1022.8 |
| 20260906063032 | 64 | 193 | 0.0 | 0.0 | 0.00 | 0.00 | 0.00 | 99 | 1022.8 |
| 20260906062526 | 64 | 229 | 1.0 | 1.0 | 0.00 | 0.00 | 0.00 | 99 | 1022.7 |
| 20260906062021 | 64 | 208 | 0.0 | 1.0 | 0.00 | 0.00 | 0.00 | 99 | 1022.7 |
| 20260906061517 | 64 | 226 | 1.0 | 2.0 | 0.00 | 0.00 | 0.00 | 99 | 1022.6 |
| 20260906061016 | 64 | 213 | 1.0 | 2.0 | 0.00 | 0.00 | 0.00 | 99 | 1022.7 |
| 20260906060513 | 65 | 205 | 1.0 | 2.0 | 0.00 | 0.00 | 0.00 | 99 | 1022.7 |
| 20260906060010 | 65 | 206 | 1.0 | 1.0 | 0.00 | 0.00 | 0.00 | 99 | 1022.8 |
| 20260906055506 | 65 | 222 | 1.0 | 1.0 | 0.00 | 0.00 | 0.00 | 99 | 1022.6 |
| 20260906055001 | 65 | 205 | 0.0 | 1.0 | 0.00 | 0.00 | 0.00 | 99 | 1022.5 |
| 20260906054500 | 65 | 205 | 1.0 | 2.0 | 0.00 | 0.00 | 0.00 | 99 | 1022.5 |
| 20260906053956 | 65 | 269 | 1.0 | 2.0 | 0.00 | 0.00 | 0.00 | 99 | 1022.6 |
| 20260906053452 | 65 | 241 | 1.0 | 1.0 | 0.00 | 0.00 | 0.00 | 99 | 1022.5 |
| 20260906052948 | 65 | 230 | 1.0 | 1.0 | 0.00 | 0.00 | 0.00 | 99 | 1022.5 |
| 20260906052443 | 65 | 219 | 1.0 | 2.0 | 0.00 | 0.00 | 0.00 | 99 | 1022.6 |
| 20260906051940 | 65 | 212 | 1.0 | 1.0 | 0.00 | 0.00 | 0.00 | 99 | 1022.7 |
| 20260906051435 | 65 | 190 | 0.0 | 0.0 | 0.00 | 0.00 | 0.00 | 98 | 1022.5 |
| 20260906050931 | 65 | 189 | 0.0 | 0.0 | 0.00 | 0.00 | 0.00 | 98 | 1022.5 |
| 20260906050431 | 65 | 197 | 0.0 | 0.0 | 0.00 | 0.00 | 0.00 | 98 | 1022.4 |
| 20260906045930 | 65 | 206 | 0.0 | 1.0 | 0.00 | 0.00 | 0.00 | 98 | 1022.3 |
| 20260906045429 | 65 | 200 | 0.0 | 0.0 | 0.00 | 0.00 | 0.00 | 98 | 1022.3 |
| 20260906044926 | 65 | 194 | 0.0 | 0.0 | 0.00 | 0.00 | 0.00 | 98 | 1022.5 |
| 20260906044425 | 65 | 171 | 0.0 | 0.0 | 0.00 | 0.00 | 0.00 | 98 | 1022.1 |
| 20260906043921 | 66 | 150 | 0.0 | 1.0 | 0.00 | 0.00 | 0.00 | 98 | 1022.2 |
| 20260906043417 | 66 | 133 | 1.0 | 1.0 | 0.00 | 0.00 | 0.00 | 98 | 1022.2 |
| 20260906042913 | 66 | 106 | 1.0 | 2.0 | 0.00 | 0.00 | 0.00 | 98 | 1022.2 |
| 20260906042412 | 66 | 145 | 0.0 | 0.0 | 0.00 | 0.00 | 0.00 | 97 | 1022.3 |
| 20260906041907 | 66 | 143 | 0.0 | 0.0 | 0.00 | 0.00 | 0.00 | 97 | 1022.1 |
| 20260906041403 | 66 | 108 | 0.0 | 0.0 | 0.00 | 0.00 | 0.00 | 97 | 1022.2 |
| 20260906040902 | 66 | 163 | 0.0 | 0.0 | 0.00 | 0.00 | 0.00 | 97 | 1022.0 |
| 20260906040357 | 66 | 163 | 0.0 | 0.0 | 0.00 | 0.00 | 0.00 | 97 | 1021.8 |
| 20260906035853 | 67 | 167 | 0.0 | 0.0 | 0.00 | 0.00 | 0.00 | 97 | 1021.9 |
| 20260906035348 | 67 | 162 | 0.0 | 0.0 | 0.00 | 0.00 | 0.00 | 97 | 1022.0 |
| 20260906034843 | 68 | 192 | 0.0 | 0.0 | 0.00 | 0.00 | 0.00 | 96 | 1022.0 |
| 20260906034338 | 68 | 175 | 0.0 | 0.0 | 0.00 | 0.00 | 0.00 | 96 | 1021.9 |
| 20260906033834 | 68 | 185 | 1.0 | 2.0 | 0.00 | 0.00 | 0.00 | 96 | 1021.8 |
| 20260906033333 | 68 | 197 | 0.0 | 0.0 | 0.00 | 0.00 | 0.00 | 96 | 1021.9 |
| 20260906032830 | 68 | 159 | 0.0 | 1.0 | 0.00 | 0.00 | 0.00 | 96 | 1021.8 |
| 20260906032325 | 68 | 192 | 0.0 | 1.0 | 0.00 | 0.00 | 0.00 | 96 | 1021.8 |
| 20260906031820 | 68 | 159 | 0.0 | 1.0 | 0.00 | 0.00 | 0.00 | 95 | 1021.8 |
| 20260906031316 | 68 | 162 | 1.0 | 2.0 | 0.00 | 0.00 | 0.00 | 95 | 1021.7 |
| 20260906030815 | 69 | 150 | 0.0 | 1.0 | 0.00 | 0.00 | 0.00 | 95 | 1021.7 |
| 20260906030311 | 69 | 167 | 0.0 | 1.0 | 0.00 | 0.00 | 0.00 | 95 | 1021.9 |
| 20260906025810 | 69 | 76 | 3.0 | 3.0 | 0.00 | 0.00 | 0.00 | 95 | 1021.4 |
| 20260906025306 | 69 | 176 | 1.0 | 2.0 | 0.00 | 0.00 | 0.00 | 95 | 1021.7 |
| 20260906024804 | 69 | 138 | 1.0 | 3.0 | 0.00 | 0.00 | 0.00 | 95 | 1021.3 |
| 20260906024303 | 69 | 156 | 1.0 | 3.0 | 0.00 | 0.00 | 0.00 | 95 | 1021.2 |
| 20260906023759 | 69 | 147 | 1.0 | 1.0 | 0.00 | 0.00 | 0.00 | 95 | 1021.4 |
| 20260906023254 | 70 | 173 | 1.0 | 2.0 | 0.00 | 0.00 | 0.00 | 95 | 1021.1 |
| 20260906022749 | 70 | 172 | 0.0 | 1.0 | 0.00 | 0.00 | 0.00 | 94 | 1021.1 |
| 20260906022244 | 70 | 167 | 0.0 | 2.0 | 0.00 | 0.00 | 0.00 | 94 | 1021.1 |
| 20260906021741 | 70 | 157 | 1.0 | 2.0 | 0.00 | 0.00 | 0.00 | 94 | 1021.1 |
| 20260906021240 | 70 | 197 | 1.0 | 5.0 | 0.00 | 0.00 | 0.00 | 94 | 1020.9 |
| 20260906020735 | 71 | 136 | 2.0 | 2.0 | 0.00 | 0.00 | 0.00 | 94 | 1020.9 |
| 20260906020234 | 71 | 161 | 1.0 | 2.0 | 0.00 | 0.00 | 0.00 | 94 | 1020.8 |
| 20260906015729 | 71 | 166 | 1.0 | 5.0 | 0.00 | 0.00 | 0.00 | 94 | 1020.4 |
| 20260906015227 | 71 | 126 | 5.0 | 9.0 | 0.00 | 0.00 | 0.00 | 94 | 1020.4 |
| 20260906014722 | 71 | 179 | 1.0 | 2.0 | 0.00 | 0.00 | 0.00 | 94 | 1020.4 |
| 20260906014218 | 71 | 156 | 2.0 | 3.0 | 0.00 | 0.00 | 0.00 | 94 | 1020.4 |
| 20260906013714 | 71 | 157 | 1.0 | 3.0 | 0.00 | 0.00 | 0.00 | 94 | 1020.4 |
| 20260906013214 | 71 | 192 | 0.0 | 1.0 | 0.00 | 0.00 | 0.00 | 94 | 1020.5 |
| 20260906012709 | 71 | 164 | 1.0 | 2.0 | 0.00 | 0.00 | 0.00 | 94 | 1020.1 |
| 20260906012203 | 71 | 174 | 0.0 | 1.0 | 0.00 | 0.00 | 0.00 | 94 | 1020.1 |
| 20260906011659 | 71 | 109 | 2.0 | 3.0 | 0.00 | 0.00 | 0.00 | 95 | 1020.0 |
| 20260906011154 | 71 | 189 | 0.0 | 3.0 | 0.00 | 0.00 | 0.00 | 95 | 1020.1 |
| 20260906010649 | 70 | 231 | 1.0 | 1.0 | 0.00 | 0.00 | 0.00 | 95 | 1020.1 |
| 20260906010146 | 71 | 221 | 0.0 | 1.0 | 0.00 | 0.00 | 0.00 | 95 | 1020.0 |
| 20260906005645 | 71 | 237 | 1.0 | 2.0 | 0.00 | 0.00 | 0.00 | 95 | 1020.1 |
| 20260906005144 | 71 | 222 | 0.0 | 1.0 | 0.00 | 0.00 | 0.00 | 95 | 1020.3 |
| 20260906004643 | 71 | 223 | 1.0 | 1.0 | 0.00 | 0.00 | 0.00 | 95 | 1020.3 |
| 20260906004138 | 71 | 224 | 0.0 | 0.0 | 0.00 | 0.00 | 0.00 | 94 | 1020.6 |
| 20260906003633 | 71 | 224 | 0.0 | 0.0 | 0.00 | 0.00 | 0.00 | 94 | 1020.4 |
| 20260906003129 | 71 | 213 | 1.0 | 1.0 | 0.00 | 0.00 | 0.00 | 94 | 1020.6 |
| 20260906002624 | 72 | 273 | 1.0 | 2.0 | 0.00 | 0.00 | 0.00 | 93 | 1020.6 |
| 20260906002119 | 72 | 257 | 1.0 | 2.0 | 0.00 | 0.00 | 0.00 | 93 | 1020.6 |
| 20260906001614 | 72 | 192 | 0.0 | 0.0 | 0.00 | 0.00 | 0.00 | 93 | 1020.6 |
| 20260906001108 | 73 | 192 | 0.0 | 0.0 | 0.00 | 0.00 | 0.00 | 92 | 1020.5 |
| 20260906000604 | 73 | 199 | 0.0 | 0.0 | 0.00 | 0.00 | 0.00 | 91 | 1020.3 |
| 20260906000059 | 73 | 205 | 1.0 | 1.0 | 0.00 | 0.00 | 0.00 | 91 | 1020.3 |
| 20260905235558 | 73 | 205 | 1.0 | 1.0 | 0.00 | 0.00 | 0.00 | 90 | 1020.3 |
| 20260905235054 | 74 | 255 | 1.0 | 2.0 | 0.00 | 0.00 | 0.00 | 89 | 1020.3 |
| 20260905234549 | 74 | 157 | 0.0 | 1.0 | 0.00 | 0.00 | 0.00 | 88 | 1020.5 |
| 20260905234044 | 75 | 187 | 1.0 | 2.0 | 0.00 | 0.00 | 0.00 | 88 | 1020.5 |
| 20260905233539 | 75 | 219 | 1.0 | 2.0 | 0.00 | 0.00 | 0.00 | 87 | 1020.3 |
| 20260905233038 | 76 | 4 | 3.0 | 3.0 | 0.00 | 0.00 | 0.00 | 86 | 1020.4 |
| 20260905232533 | 77 | 143 | 2.0 | 3.0 | 0.00 | 0.00 | 0.00 | 85 | 1020.4 |
| 20260905232029 | 78 | 178 | 1.0 | 2.0 | 0.00 | 0.00 | 0.00 | 83 | 1020.4 |
| 20260905231524 | 78 | 280 | 1.0 | 5.0 | 0.00 | 0.00 | 0.00 | 82 | 1020.3 |
| 20260905231021 | 78 | 127 | 1.0 | 2.0 | 0.00 | 0.00 | 0.00 | 81 | 1020.6 |
| 20260905230519 | 79 | 66 | 3.0 | 5.0 | 0.00 | 0.00 | 0.00 | 80 | 1020.6 |
| 20260905230018 | 79 | 357 | 2.0 | 3.0 | 0.00 | 0.00 | 0.00 | 82 | 1020.3 |
| 20260905225513 | 78 | 245 | 2.0 | 2.0 | 0.00 | 0.00 | 0.00 | 83 | 1020.6 |
| 20260905225008 | 77 | 48 | 2.0 | 3.0 | 0.00 | 0.00 | 0.00 | 84 | 1020.4 |
| 20260905224503 | 76 | 68 | 3.0 | 3.0 | 0.00 | 0.00 | 0.00 | 85 | 1020.5 |
| 20260905224002 | 77 | 358 | 3.0 | 3.0 | 0.00 | 0.00 | 0.00 | 84 | 1020.4 |
| 20260905223500 | 78 | 350 | 2.0 | 7.0 | 0.00 | 0.00 | 0.00 | 83 | 1020.6 |
| 20260905222955 | 79 | 19 | 5.0 | 7.0 | 0.00 | 0.00 | 0.00 | 82 | 1020.4 |
| 20260905222450 | 80 | 141 | 5.0 | 8.0 | 0.00 | 0.00 | 0.00 | 80 | 1020.1 |
| 20260905221945 | 79 | 17 | 3.0 | 5.0 | 0.00 | 0.00 | 0.00 | 81 | 1020.1 |
| 20260905221442 | 80 | 254 | 1.0 | 3.0 | 0.00 | 0.00 | 0.00 | 79 | 1020.1 |
| 20260905220938 | 82 | 7 | 5.0 | 6.0 | 0.00 | 0.00 | 0.00 | 77 | 1019.9 |
| 20260905220434 | 81 | 107 | 3.0 | 6.0 | 0.00 | 0.00 | 0.00 | 77 | 1019.8 |
| 20260905215933 | 81 | 139 | 2.0 | 5.0 | 0.00 | 0.00 | 0.00 | 78 | 1019.9 |
| 20260905215428 | 80 | 161 | 1.0 | 3.0 | 0.00 | 0.00 | 0.00 | 79 | 1019.9 |
| 20260905214924 | 80 | 37 | 3.0 | 5.0 | 0.00 | 0.00 | 0.00 | 79 | 1020.0 |
| 20260905214420 | 80 | 356 | 3.0 | 7.0 | 0.00 | 0.00 | 0.00 | 80 | 1020.1 |
| 20260905213919 | 79 | 47 | 2.0 | 3.0 | 0.00 | 0.00 | 0.00 | 82 | 1020.0 |
| 20260905213416 | 78 | 8 | 2.0 | 3.0 | 0.00 | 0.00 | 0.00 | 83 | 1020.0 |
| 20260905212912 | 78 | 338 | 2.0 | 3.0 | 0.00 | 0.00 | 0.00 | 82 | 1020.1 |
| 20260905212406 | 78 | 347 | 4.0 | 5.0 | 0.00 | 0.00 | 0.00 | 81 | 1020.3 |
| 20260905211905 | 78 | 4 | 3.0 | 5.0 | 0.00 | 0.00 | 0.00 | 81 | 1020.3 |
| 20260905211401 | 78 | 10 | 3.0 | 7.0 | 0.00 | 0.00 | 0.00 | 81 | 1020.1 |
| 20260905210857 | 79 | 303 | 2.0 | 5.0 | 0.00 | 0.00 | 0.00 | 81 | 1020.1 |
| 20260905210356 | 78 | 16 | 5.0 | 7.0 | 0.00 | 0.00 | 0.00 | 80 | 1020.1 |
| 20260905205856 | 79 | 282 | 2.0 | 5.0 | 0.00 | 0.00 | 0.00 | 80 | 1020.0 |
| 20260905205351 | 78 | 87 | 3.0 | 5.0 | 0.00 | 0.00 | 0.00 | 79 | 1020.3 |
| 20260905204849 | 78 | 349 | 5.0 | 9.0 | 0.00 | 0.00 | 0.00 | 80 | 1020.3 |
| 20260905204346 | 78 | 56 | 1.0 | 5.0 | 0.00 | 0.00 | 0.00 | 80 | 1020.4 |
| 20260905203839 | 78 | 33 | 5.0 | 7.0 | 0.00 | 0.00 | 0.00 | 79 | 1020.4 |
| 20260905203335 | 79 | 347 | 2.0 | 6.0 | 0.00 | 0.00 | 0.00 | 80 | 1020.6 |
| 20260905202830 | 79 | 84 | 4.0 | 5.0 | 0.00 | 0.00 | 0.00 | 81 | 1020.5 |
| 20260905202325 | 79 | 19 | 5.0 | 8.0 | 0.00 | 0.00 | 0.00 | 80 | 1020.4 |
| 20260905201821 | 79 | 139 | 1.0 | 3.0 | 0.00 | 0.00 | 0.00 | 82 | 1020.6 |
| 20260905201316 | 79 | 350 | 4.0 | 7.0 | 0.00 | 0.00 | 0.00 | 82 | 1020.1 |
| 20260905200810 | 80 | 41 | 2.0 | 6.0 | 0.00 | 0.00 | 0.00 | 81 | 1020.3 |
| 20260905200307 | 80 | 128 | 3.0 | 10.0 | 0.00 | 0.00 | 0.00 | 81 | 1020.4 |
| 20260905195804 | 82 | 338 | 1.0 | 2.0 | 0.00 | 0.00 | 0.00 | 79 | 1020.1 |
| 20260905195300 | 81 | 354 | 2.0 | 5.0 | 0.00 | 0.00 | 0.00 | 80 | 1020.1 |
| 20260905194756 | 81 | 17 | 4.0 | 7.0 | 0.00 | 0.00 | 0.00 | 79 | 1020.1 |
| 20260905194254 | 81 | 162 | 3.0 | 6.0 | 0.00 | 0.00 | 0.00 | 81 | 1020.3 |
| 20260905193754 | 80 | 130 | 3.0 | 7.0 | 0.00 | 0.00 | 0.00 | 83 | 1020.3 |
| 20260905193249 | 81 | 44 | 3.0 | 11.0 | 0.00 | 0.00 | 0.00 | 81 | 1020.4 |
| 20260905192744 | 82 | 137 | 3.0 | 5.0 | 0.00 | 0.00 | 0.00 | 78 | 1020.3 |
| 20260905192241 | 82 | 226 | 0.0 | 3.0 | 0.00 | 0.00 | 0.00 | 80 | 1020.4 |
| 20260905191740 | 80 | 309 | 5.0 | 8.0 | 0.00 | 0.00 | 0.00 | 79 | 1020.1 |
| 20260905191239 | 79 | 73 | 3.0 | 7.0 | 0.00 | 0.00 | 0.00 | 81 | 1020.1 |
| 20260905190737 | 80 | 341 | 3.0 | 5.0 | 0.00 | 0.00 | 0.00 | 82 | 1020.4 |
| 20260905190236 | 80 | 280 | 3.0 | 3.0 | 0.00 | 0.00 | 0.00 | 83 | 1020.3 |
| 20260905185735 | 78 | 120 | 2.0 | 3.0 | 0.00 | 0.00 | 0.00 | 84 | 1020.5 |
| 20260905185230 | 78 | 1 | 4.0 | 6.0 | 0.00 | 0.00 | 0.00 | 84 | 1020.7 |
| 20260905184725 | 78 | 70 | 3.0 | 6.0 | 0.00 | 0.00 | 0.00 | 84 | 1020.6 |
| 20260905184224 | 78 | 176 | 1.0 | 5.0 | 0.00 | 0.00 | 0.00 | 86 | 1020.6 |
| 20260905183723 | 78 | 348 | 2.0 | 5.0 | 0.00 | 0.00 | 0.00 | 86 | 1020.5 |
| 20260905183219 | 78 | 51 | 3.0 | 3.0 | 0.00 | 0.00 | 0.00 | 85 | 1020.5 |
| 20260905182718 | 78 | 74 | 5.0 | 7.0 | 0.00 | 0.00 | 0.00 | 85 | 1020.7 |
| 20260905182213 | 77 | 63 | 4.0 | 6.0 | 0.00 | 0.00 | 0.00 | 87 | 1020.6 |
| 20260905181708 | 77 | 166 | 2.0 | 7.0 | 0.00 | 0.00 | 0.00 | 88 | 1020.8 |
| 20260905181207 | 76 | 349 | 2.0 | 6.0 | 0.00 | 0.00 | 0.00 | 88 | 1020.8 |
| 20260905180702 | 76 | 7 | 5.0 | 7.0 | 0.00 | 0.00 | 0.00 | 88 | 1020.8 |
| 20260905180157 | 76 | 25 | 5.0 | 8.0 | 0.00 | 0.00 | 0.00 | 88 | 1020.8 |
| 20260905175656 | 76 | 330 | 2.0 | 6.0 | 0.00 | 0.00 | 0.00 | 89 | 1020.9 |
| 20260905175151 | 75 | 30 | 2.0 | 5.0 | 0.00 | 0.00 | 0.00 | 90 | 1020.9 |
| 20260905174647 | 75 | 81 | 3.0 | 5.0 | 0.00 | 0.00 | 0.00 | 90 | 1020.9 |
| 20260905174143 | 75 | 34 | 2.0 | 5.0 | 0.00 | 0.00 | 0.00 | 91 | 1021.1 |
| 20260905173638 | 74 | 123 | 3.0 | 3.0 | 0.00 | 0.00 | 0.00 | 91 | 1021.0 |
| 20260905173134 | 74 | 90 | 3.0 | 5.0 | 0.00 | 0.00 | 0.00 | 92 | 1021.1 |
| 20260905172633 | 74 | 315 | 5.0 | 6.0 | 0.00 | 0.00 | 0.00 | 92 | 1021.0 |
| 20260905172128 | 74 | 309 | 1.0 | 5.0 | 0.00 | 0.00 | 0.00 | 92 | 1020.9 |
| 20260905171624 | 75 | 157 | 3.0 | 5.0 | 0.00 | 0.00 | 0.00 | 92 | 1020.9 |
| 20260905171120 | 75 | 68 | 2.0 | 2.0 | 0.00 | 0.00 | 0.00 | 92 | 1021.1 |
| 20260905170616 | 74 | 344 | 3.0 | 8.0 | 0.00 | 0.00 | 0.00 | 91 | 1021.0 |
| 20260905170111 | 74 | 32 | 3.0 | 6.0 | 0.00 | 0.00 | 0.00 | 92 | 1021.0 |
| 20260905165611 | 74 | 340 | 3.0 | 5.0 | 0.00 | 0.00 | 0.00 | 92 | 1021.1 |
| 20260905165107 | 74 | 214 | 1.0 | 1.0 | 0.00 | 0.00 | 0.00 | 92 | 1021.1 |
| 20260905164601 | 75 | 155 | 1.0 | 5.0 | 0.00 | 0.00 | 0.00 | 92 | 1021.2 |
| 20260905164055 | 75 | 38 | 3.0 | 7.0 | 0.00 | 0.00 | 0.00 | 92 | 1021.2 |
| 20260905163552 | 75 | 336 | 3.0 | 5.0 | 0.00 | 0.00 | 0.00 | 92 | 1021.2 |
| 20260905163048 | 75 | 43 | 2.0 | 3.0 | 0.00 | 0.00 | 0.00 | 92 | 1021.1 |
| 20260905162544 | 75 | 303 | 3.0 | 6.0 | 0.00 | 0.00 | 0.00 | 92 | 1020.9 |
| 20260905162043 | 75 | 43 | 1.0 | 5.0 | 0.00 | 0.00 | 0.00 | 92 | 1021.0 |
| 20260905161543 | 75 | 22 | 2.0 | 5.0 | 0.00 | 0.00 | 0.00 | 92 | 1021.0 |
| 20260905161041 | 75 | 72 | 2.0 | 6.0 | 0.00 | 0.00 | 0.00 | 92 | 1021.1 |
| 20260905160539 | 75 | 187 | 1.0 | 3.0 | 0.00 | 0.00 | 0.00 | 93 | 1020.8 |
| 20260905160034 | 74 | 64 | 5.0 | 7.0 | 0.00 | 0.00 | 0.00 | 93 | 1020.9 |
| 20260905155534 | 74 | 125 | 3.0 | 7.0 | 0.00 | 0.00 | 0.00 | 93 | 1020.8 |
| 20260905155032 | 74 | 169 | 1.0 | 5.0 | 0.00 | 0.00 | 0.00 | 94 | 1020.9 |
| 20260905154528 | 73 | 307 | 1.0 | 6.0 | 0.00 | 0.00 | 0.00 | 95 | 1020.8 |
| 20260905154023 | 73 | 16 | 2.0 | 3.0 | 0.00 | 0.00 | 0.00 | 96 | 1021.0 |
| 20260905153519 | 73 | 51 | 3.0 | 3.0 | 0.00 | 0.00 | 0.00 | 96 | 1020.7 |
| 20260905153019 | 73 | 201 | 1.0 | 3.0 | 0.00 | 0.00 | 0.00 | 97 | 1020.7 |
| 20260905152519 | 72 | 161 | 0.0 | 5.0 | 0.00 | 0.00 | 0.00 | 97 | 1021.0 |
| 20260905152014 | 72 | 163 | 1.0 | 2.0 | 0.00 | 0.00 | 0.00 | 97 | 1020.9 |
| 20260905151509 | 72 | 159 | 1.0 | 2.0 | 0.00 | 0.00 | 0.00 | 98 | 1020.8 |
| 20260905151004 | 72 | 138 | 2.0 | 5.0 | 0.00 | 0.00 | 0.00 | 98 | 1020.7 |
| 20260905150459 | 72 | 104 | 3.0 | 5.0 | 0.00 | 0.00 | 0.00 | 98 | 1020.6 |
| 20260905145956 | 72 | 99 | 3.0 | 3.0 | 0.00 | 0.00 | 0.00 | 99 | 1020.5 |
| 20260905145451 | 72 | 310 | 2.0 | 3.0 | 0.00 | 0.00 | 0.00 | 99 | 1020.7 |
| 20260905144950 | 72 | 204 | 1.0 | 2.0 | 0.00 | 0.00 | 0.00 | 99 | 1020.5 |
| 20260905144446 | 71 | 11 | 4.0 | 6.0 | 0.00 | 0.00 | 0.00 | 99 | 1020.5 |
| 20260905143944 | 71 | 102 | 3.0 | 6.0 | 0.00 | 0.00 | 0.00 | 99 | 1020.4 |
| 20260905143443 | 71 | 353 | 2.0 | 5.0 | 0.00 | 0.00 | 0.00 | 99 | 1020.3 |
| 20260905142938 | 71 | 14 | 2.0 | 3.0 | 0.00 | 0.00 | 0.00 | 99 | 1020.0 |
| 20260905142437 | 71 | 121 | 1.0 | 3.0 | 0.00 | 0.00 | 0.00 | 99 | 1020.1 |
| 20260905141933 | 71 | 134 | 2.0 | 3.0 | 0.00 | 0.00 | 0.00 | 99 | 1020.0 |
| 20260905141427 | 71 | 100 | 1.0 | 2.0 | 0.00 | 0.00 | 0.00 | 99 | 1019.9 |
| 20260905140924 | 71 | 355 | 3.0 | 6.0 | 0.00 | 0.00 | 0.00 | 99 | 1019.9 |